AAL811 KBOS-KCLT

Flight info

Callsign AAL811
Flight time 1h 40m
Altitude 40000
Route PATSS7 PATSS NELIE Q75 GVE AIROW CHSLY6
Aircraft B788/H-L/4004

Departure

Time 2026-05-04 18:41
Airport Boston Logan International Airport (KBOS)

Arrival

Time 2026-05-04 20:22
Airport Charlotte Douglas International Airport (KCLT)
Time Latitude Longitude Altitude Speed Heading
2026-05-04 18:32 42.37082 -71.01849 32 ft 0 kts 213°
2026-05-04 18:33 42.37082 -71.01850 32 ft 0 kts 213°
2026-05-04 18:34 42.37086 -71.01846 32 ft 2 kts 213°
2026-05-04 18:34 42.37100 -71.01834 32 ft 3 kts 213°
2026-05-04 18:34 42.37116 -71.01820 32 ft 3 kts 213°
2026-05-04 18:34 42.37133 -71.01805 32 ft 3 kts 213°
2026-05-04 18:35 42.37151 -71.01789 32 ft 3 kts 213°
2026-05-04 18:35 42.37159 -71.01782 32 ft 0 kts 213°
2026-05-04 18:36 42.37158 -71.01782 32 ft 1 kts 213°
2026-05-04 18:37 42.37129 -71.01774 32 ft 8 kts 139°
2026-05-04 18:37 42.37127 -71.01672 32 ft 16 kts 71°
2026-05-04 18:37 42.37085 -71.01533 32 ft 20 kts 137°
2026-05-04 18:37 42.36974 -71.01384 32 ft 25 kts 135°
2026-05-04 18:38 42.36887 -71.01251 32 ft 14 kts 110°
2026-05-04 18:38 42.36954 -71.01142 32 ft 20 kts 32°
2026-05-04 18:38 42.37096 -71.01039 32 ft 25 kts 25°
2026-05-04 18:38 42.37199 -71.00976 32 ft 15 kts 25°
2026-05-04 18:39 42.37304 -71.00909 32 ft 14 kts 26°
2026-05-04 18:39 42.37397 -71.00856 32 ft 16 kts 20°
2026-05-04 18:39 42.37532 -71.00791 32 ft 25 kts 19°
2026-05-04 18:39 42.37690 -71.00716 32 ft 20 kts 19°
2026-05-04 18:40 42.37781 -71.00617 32 ft 16 kts 91°
2026-05-04 18:40 42.37740 -71.00519 32 ft 10 kts 154°
2026-05-04 18:40 42.37680 -71.00524 32 ft 10 kts 198°
2026-05-04 18:40 42.37352 -71.00683 32 ft 108 kts 200°
2026-05-04 18:41 42.36334 -71.01175 93 ft 191 kts 200°
2026-05-04 18:41 42.35090 -71.01749 1218 ft 190 kts 200°
2026-05-04 18:41 42.33731 -71.01706 1997 ft 209 kts 178°
2026-05-04 18:41 42.32391 -71.00644 2479 ft 246 kts 149°
2026-05-04 18:42 42.31412 -70.98609 3203 ft 273 kts 120°
2026-05-04 18:42 42.31057 -70.96016 4213 ft 280 kts 101°
2026-05-04 18:42 42.30609 -70.93411 4716 ft 292 kts 112°
2026-05-04 18:42 42.29475 -70.91213 4878 ft 278 kts 138°
2026-05-04 18:43 42.27877 -70.89911 4973 ft 268 kts 162°
2026-05-04 18:43 42.26061 -70.89637 4979 ft 255 kts 188°
2026-05-04 18:43 42.24453 -70.90440 4983 ft 243 kts 213°
2026-05-04 18:43 42.23371 -70.92067 4988 ft 236 kts 239°
2026-05-04 18:44 42.22982 -70.94195 5049 ft 235 kts 261°
2026-05-04 18:44 42.22952 -70.94934 5111 ft 235 kts 263°
2026-05-04 18:44 42.22835 -70.98657 5043 ft 237 kts 266°
2026-05-04 18:44 42.22771 -71.00864 5024 ft 235 kts 266°
2026-05-04 18:45 42.22703 -71.03043 5020 ft 235 kts 265°
2026-05-04 18:45 42.22630 -71.05279 5015 ft 235 kts 265°
2026-05-04 18:45 42.22554 -71.07488 5017 ft 235 kts 265°
2026-05-04 18:45 42.22470 -71.09750 5194 ft 251 kts 265°
2026-05-04 18:46 42.22379 -71.12070 6309 ft 248 kts 265°
2026-05-04 18:46 42.22283 -71.14392 7554 ft 245 kts 266°
2026-05-04 18:46 42.22184 -71.16701 8636 ft 246 kts 266°
2026-05-04 18:46 42.22080 -71.18963 9674 ft 245 kts 267°
2026-05-04 18:47 42.21967 -71.21277 10579 ft 250 kts 268°
2026-05-04 18:47 42.21851 -71.23640 11444 ft 254 kts 268°
2026-05-04 18:47 42.21726 -71.26066 12279 ft 260 kts 268°
2026-05-04 18:47 42.21594 -71.28539 13018 ft 267 kts 268°
2026-05-04 18:48 42.21455 -71.31039 13801 ft 271 kts 268°
2026-05-04 18:48 42.21306 -71.33575 14607 ft 275 kts 268°
2026-05-04 18:48 42.21149 -71.36164 15377 ft 278 kts 268°
2026-05-04 18:48 42.20983 -71.38792 16128 ft 282 kts 268°
2026-05-04 18:49 42.20846 -71.41445 16865 ft 285 kts 269°
2026-05-04 18:49 42.20740 -71.44134 17600 ft 288 kts 268°
2026-05-04 18:49 42.20596 -71.45908 18063 ft 290 kts 266°
2026-05-04 18:49 42.20133 -71.49518 18929 ft 297 kts 262°
2026-05-04 18:50 42.19674 -71.52260 19542 ft 302 kts 260°
2026-05-04 18:50 42.19156 -71.55026 20138 ft 307 kts 259°
2026-05-04 18:50 42.18789 -71.56875 20543 ft 309 kts 258°
2026-05-04 18:50 42.18206 -71.59720 21130 ft 313 kts 258°
2026-05-04 18:51 42.17615 -71.62535 21671 ft 318 kts 258°
2026-05-04 18:51 42.17002 -71.65415 22215 ft 321 kts 257°
2026-05-04 18:51 42.16379 -71.68321 22759 ft 325 kts 257°
2026-05-04 18:51 42.15735 -71.71303 23331 ft 327 kts 257°
2026-05-04 18:52 42.15096 -71.74251 23872 ft 329 kts 257°
2026-05-04 18:52 42.14450 -71.77225 24401 ft 331 kts 257°
2026-05-04 18:52 42.13809 -71.80167 24990 ft 330 kts 258°
2026-05-04 18:52 42.13161 -71.83135 25564 ft 330 kts 258°
2026-05-04 18:53 42.12503 -71.86156 26046 ft 333 kts 258°
2026-05-04 18:53 42.11856 -71.89122 26476 ft 335 kts 258°
2026-05-04 18:53 42.11194 -71.92149 26885 ft 338 kts 258°
2026-05-04 18:53 42.10521 -71.95226 27306 ft 341 kts 258°
2026-05-04 18:54 42.09858 -71.98246 27733 ft 342 kts 258°
2026-05-04 18:54 42.09172 -72.01366 28174 ft 343 kts 258°
2026-05-04 18:54 42.08493 -72.04453 28596 ft 344 kts 258°
2026-05-04 18:54 42.07818 -72.07519 28967 ft 346 kts 258°
2026-05-04 18:55 42.07131 -72.10632 29301 ft 349 kts 258°
2026-05-04 18:55 42.05740 -72.16925 29969 ft 353 kts 259°
2026-05-04 18:55 42.05035 -72.20109 30334 ft 354 kts 258°
2026-05-04 18:56 42.04338 -72.23255 30690 ft 355 kts 258°
2026-05-04 18:56 42.03624 -72.26468 31019 ft 357 kts 258°
2026-05-04 18:56 42.02906 -72.29697 31302 ft 361 kts 258°
2026-05-04 18:56 42.02186 -72.32929 31462 ft 368 kts 258°
2026-05-04 18:57 42.01434 -72.36312 31340 ft 383 kts 258°
2026-05-04 18:57 42.00670 -72.39830 31254 ft 395 kts 257°
2026-05-04 18:57 41.99886 -72.43301 32102 ft 385 kts 257°
2026-05-04 18:57 41.99094 -72.46798 32013 ft 398 kts 257°
2026-05-04 18:58 41.98301 -72.50284 32949 ft 381 kts 257°
2026-05-04 18:58 41.97535 -72.53645 33880 ft 368 kts 257°
2026-05-04 18:58 41.96798 -72.56909 34522 ft 360 kts 256°
2026-05-04 18:58 41.96077 -72.60108 35023 ft 356 kts 256°
2026-05-04 18:59 41.95367 -72.63253 35366 ft 356 kts 256°
2026-05-04 18:59 41.94584 -72.66434 35571 ft 363 kts 251°
2026-05-04 18:59 41.93260 -72.69360 35742 ft 373 kts 238°
2026-05-04 18:59 41.91565 -72.71997 36118 ft 373 kts 233°
2026-05-04 19:00 41.89782 -72.74557 36368 ft 376 kts 231°
2026-05-04 19:00 41.87965 -72.77092 36615 ft 378 kts 231°
2026-05-04 19:00 41.86115 -72.79640 36864 ft 380 kts 231°
2026-05-04 19:00 41.84262 -72.82184 37115 ft 382 kts 231°
2026-05-04 19:01 41.82403 -72.84731 37366 ft 383 kts 231°
2026-05-04 19:01 41.80539 -72.87282 37615 ft 384 kts 230°
2026-05-04 19:01 41.78666 -72.89841 37863 ft 385 kts 230°
2026-05-04 19:01 41.76786 -72.92407 38115 ft 386 kts 230°
2026-05-04 19:02 41.74912 -72.94962 38363 ft 386 kts 230°
2026-05-04 19:02 41.73016 -72.97547 38610 ft 387 kts 230°
2026-05-04 19:02 41.71123 -73.00123 38863 ft 387 kts 230°
2026-05-04 19:02 41.69256 -73.02661 39108 ft 387 kts 230°
2026-05-04 19:03 41.67376 -73.05214 39355 ft 387 kts 230°
2026-05-04 19:03 41.65474 -73.07795 39603 ft 387 kts 229°
2026-05-04 19:03 41.63581 -73.10363 39816 ft 386 kts 229°
2026-05-04 19:03 41.61689 -73.12927 39899 ft 389 kts 229°
2026-05-04 19:04 41.57852 -73.18123 39912 ft 398 kts 229°
2026-05-04 19:04 41.53933 -73.23418 39907 ft 407 kts 229°
2026-05-04 19:05 41.49897 -73.28866 39899 ft 415 kts 229°
2026-05-04 19:05 41.45818 -73.34409 39910 ft 423 kts 230°
2026-05-04 19:06 41.41645 -73.40089 39910 ft 432 kts 230°
2026-05-04 19:06 41.37429 -73.45827 39903 ft 440 kts 230°
2026-05-04 19:07 41.33098 -73.51709 39902 ft 448 kts 229°
2026-05-04 19:07 41.28774 -73.57767 39909 ft 455 kts 232°
2026-05-04 19:08 41.24658 -73.64283 39921 ft 460 kts 234°
2026-05-04 19:08 41.20622 -73.70882 39909 ft 462 kts 234°
2026-05-04 19:09 41.16603 -73.77498 39926 ft 462 kts 234°
2026-05-04 19:09 41.12581 -73.84209 39931 ft 464 kts 235°
2026-05-04 19:10 41.08576 -73.90922 39922 ft 463 kts 235°
2026-05-04 19:10 41.04573 -73.97631 39935 ft 464 kts 235°
2026-05-04 19:11 41.00579 -74.04315 39941 ft 466 kts 234°
2026-05-04 19:11 40.96550 -74.11038 39927 ft 464 kts 235°
2026-05-04 19:12 40.90539 -74.21045 39939 ft 464 kts 234°
2026-05-04 19:13 40.86531 -74.27698 39938 ft 464 kts 235°
2026-05-04 19:13 40.82502 -74.34371 39926 ft 461 kts 235°
2026-05-04 19:14 40.78489 -74.41008 39939 ft 463 kts 235°
2026-05-04 19:14 40.74470 -74.47640 39931 ft 463 kts 235°
2026-05-04 19:15 40.70468 -74.54234 39931 ft 462 kts 234°
2026-05-04 19:15 40.66445 -74.60840 39941 ft 462 kts 234°
2026-05-04 19:16 40.62430 -74.67422 39928 ft 461 kts 234°
2026-05-04 19:16 40.58279 -74.73898 39940 ft 463 kts 232°
2026-05-04 19:17 40.53985 -74.80201 39938 ft 466 kts 231°
2026-05-04 19:17 40.49592 -74.86488 39932 ft 468 kts 231°
2026-05-04 19:18 40.45165 -74.92748 39914 ft 467 kts 231°
2026-05-04 19:18 40.40727 -74.98998 39937 ft 467 kts 230°
2026-05-04 19:19 40.36288 -75.05238 39961 ft 467 kts 230°
2026-05-04 19:19 40.31846 -75.11469 39980 ft 467 kts 230°
2026-05-04 19:20 40.27408 -75.17682 39991 ft 467 kts 230°
2026-05-04 19:20 40.22972 -75.23880 39976 ft 467 kts 230°
2026-05-04 19:21 40.18549 -75.30051 39961 ft 461 kts 230°
2026-05-04 19:21 40.14128 -75.36199 39974 ft 465 kts 230°
2026-05-04 19:22 40.09678 -75.42381 39956 ft 466 kts 230°
2026-05-04 19:22 40.05227 -75.48547 39945 ft 465 kts 230°
2026-05-04 19:23 40.00820 -75.54642 39939 ft 464 kts 230°
2026-05-04 19:23 39.96374 -75.60779 39956 ft 464 kts 230°
2026-05-04 19:24 39.92001 -75.66989 39963 ft 463 kts 232°
2026-05-04 19:24 39.87863 -75.73420 39965 ft 462 kts 233°
2026-05-04 19:25 39.83781 -75.79910 39978 ft 466 kts 234°
2026-05-04 19:25 39.79699 -75.86425 39971 ft 467 kts 234°
2026-05-04 19:26 39.75595 -75.92960 39964 ft 466 kts 234°
2026-05-04 19:26 39.71512 -75.99449 39960 ft 458 kts 233°
2026-05-04 19:27 39.67523 -76.05769 39955 ft 450 kts 233°
2026-05-04 19:27 39.63533 -76.12086 39980 ft 454 kts 233°
2026-05-04 19:28 39.59491 -76.18410 39962 ft 455 kts 233°
2026-05-04 19:28 39.55436 -76.24681 39946 ft 454 kts 233°
2026-05-04 19:29 39.51337 -76.30990 39957 ft 460 kts 232°
2026-05-04 19:29 39.47120 -76.37249 39976 ft 462 kts 230°
2026-05-04 19:30 39.42726 -76.43268 39957 ft 462 kts 229°
2026-05-04 19:30 39.38253 -76.49206 39942 ft 461 kts 229°
2026-05-04 19:31 39.34498 -76.54130 39957 ft 461 kts 228°
2026-05-04 19:31 39.29977 -76.60031 39978 ft 463 kts 228°
2026-05-04 19:32 39.25438 -76.65938 39970 ft 461 kts 228°
2026-05-04 19:32 39.20946 -76.71766 39952 ft 454 kts 229°
2026-05-04 19:33 39.16512 -76.77517 39959 ft 451 kts 229°
2026-05-04 19:33 39.12063 -76.83285 39983 ft 457 kts 228°
2026-05-04 19:34 39.07561 -76.89098 39975 ft 457 kts 228°
2026-05-04 19:34 39.03115 -76.94829 39955 ft 455 kts 228°
2026-05-04 19:35 38.98623 -77.00614 39954 ft 456 kts 228°
2026-05-04 19:35 38.94133 -77.06392 39945 ft 456 kts 228°
2026-05-04 19:36 38.89653 -77.12148 39941 ft 456 kts 228°
2026-05-04 19:36 38.85197 -77.17862 39928 ft 456 kts 228°
2026-05-04 19:37 38.80723 -77.23587 39937 ft 456 kts 228°
2026-05-04 19:37 38.76203 -77.29357 39943 ft 458 kts 228°
2026-05-04 19:38 38.71538 -77.35013 39934 ft 462 kts 227°
2026-05-04 19:38 38.66825 -77.40547 39926 ft 455 kts 226°
2026-05-04 19:39 38.62149 -77.45974 39946 ft 458 kts 226°
2026-05-04 19:39 38.57409 -77.51444 39955 ft 458 kts 226°
2026-05-04 19:40 38.52671 -77.56895 39945 ft 457 kts 226°
2026-05-04 19:40 38.47940 -77.62329 39957 ft 458 kts 226°
2026-05-04 19:41 38.43213 -77.67748 39965 ft 458 kts 226°
2026-05-04 19:41 38.38484 -77.73157 39959 ft 456 kts 226°
2026-05-04 19:42 38.33744 -77.78574 39968 ft 459 kts 225°
2026-05-04 19:42 38.28933 -77.84061 39975 ft 466 kts 226°
2026-05-04 19:43 38.24163 -77.89480 39957 ft 459 kts 226°
2026-05-04 19:43 38.19407 -77.94877 39973 ft 455 kts 226°
2026-05-04 19:44 38.14702 -78.00219 39983 ft 457 kts 226°
2026-05-04 19:44 38.09943 -78.05606 39985 ft 457 kts 226°
2026-05-04 19:45 38.05176 -78.10991 39986 ft 457 kts 226°
2026-05-04 19:45 38.00602 -78.16467 39998 ft 453 kts 231°
2026-05-04 19:46 37.96357 -78.22388 39971 ft 453 kts 232°
2026-05-04 19:46 37.92187 -78.28347 39994 ft 454 kts 232°
2026-05-04 19:47 37.87955 -78.34377 39988 ft 456 kts 232°
2026-05-04 19:47 37.83733 -78.40371 39985 ft 455 kts 232°
2026-05-04 19:48 37.79505 -78.46358 39993 ft 456 kts 232°
2026-05-04 19:48 37.75304 -78.52294 39976 ft 456 kts 232°
2026-05-04 19:49 37.71093 -78.58228 39980 ft 448 kts 233°
2026-05-04 19:49 37.66955 -78.64052 39991 ft 445 kts 233°
2026-05-04 19:50 37.62790 -78.69912 39979 ft 449 kts 233°
2026-05-04 19:50 37.58625 -78.75756 39965 ft 448 kts 233°
2026-05-04 19:51 37.54452 -78.81601 39984 ft 449 kts 232°
2026-05-04 19:51 37.50265 -78.87453 39989 ft 448 kts 232°
2026-05-04 19:52 37.46112 -78.93245 39985 ft 448 kts 232°
2026-05-04 19:52 37.41906 -78.99105 39991 ft 448 kts 232°
2026-05-04 19:53 37.37736 -79.04902 39998 ft 448 kts 232°
2026-05-04 19:53 37.33562 -79.10693 39985 ft 447 kts 232°
2026-05-04 19:54 37.29391 -79.16472 40001 ft 448 kts 232°
2026-05-04 19:54 37.24852 -79.21944 40028 ft 453 kts 225°
2026-05-04 19:55 37.19978 -79.26941 39985 ft 454 kts 224°
2026-05-04 19:55 37.14945 -79.31704 40008 ft 455 kts 222°
2026-05-04 19:56 37.09813 -79.36381 39997 ft 456 kts 221°
2026-05-04 19:56 37.04660 -79.41019 39466 ft 460 kts 221°
2026-05-04 19:56 37.02054 -79.43294 39273 ft 449 kts 220°
2026-05-04 19:57 36.99495 -79.45499 38981 ft 446 kts 218°
2026-05-04 19:57 36.96917 -79.47709 38722 ft 456 kts 218°
2026-05-04 19:57 36.94255 -79.49969 38409 ft 466 kts 218°
2026-05-04 19:57 36.91543 -79.52256 38083 ft 469 kts 219°
2026-05-04 19:58 36.88894 -79.54482 37738 ft 459 kts 220°
2026-05-04 19:58 36.86254 -79.56699 37403 ft 448 kts 220°
2026-05-04 19:58 36.83668 -79.58874 37083 ft 444 kts 220°
2026-05-04 19:58 36.81133 -79.61010 36819 ft 447 kts 220°
2026-05-04 19:59 36.78499 -79.63230 36504 ft 453 kts 220°
2026-05-04 19:59 36.75920 -79.65400 36081 ft 457 kts 220°
2026-05-04 19:59 36.73273 -79.67620 35587 ft 455 kts 220°
2026-05-04 19:59 36.70653 -79.69812 35061 ft 453 kts 219°
2026-05-04 20:00 36.68043 -79.71995 34525 ft 454 kts 219°
2026-05-04 20:00 36.65406 -79.74199 33972 ft 456 kts 219°
2026-05-04 20:00 36.62768 -79.76401 33409 ft 457 kts 219°
2026-05-04 20:00 36.60122 -79.78607 32837 ft 455 kts 219°
2026-05-04 20:01 36.57502 -79.80788 32268 ft 450 kts 219°
2026-05-04 20:01 36.54925 -79.82930 31706 ft 443 kts 219°
2026-05-04 20:01 36.52370 -79.85052 31148 ft 439 kts 219°
2026-05-04 20:01 36.49851 -79.87143 30596 ft 430 kts 219°
2026-05-04 20:02 36.47424 -79.89156 30064 ft 420 kts 220°
2026-05-04 20:02 36.45012 -79.91157 29539 ft 411 kts 220°
2026-05-04 20:02 36.42629 -79.93134 29021 ft 404 kts 220°
2026-05-04 20:02 36.40340 -79.95033 28524 ft 397 kts 220°
2026-05-04 20:03 36.38062 -79.96922 28029 ft 391 kts 219°
2026-05-04 20:03 36.35822 -79.98779 27537 ft 385 kts 219°
2026-05-04 20:03 36.33609 -80.00610 27078 ft 381 kts 219°
2026-05-04 20:03 36.31400 -80.02438 26569 ft 383 kts 219°
2026-05-04 20:04 36.29161 -80.04295 25877 ft 390 kts 219°
2026-05-04 20:04 36.26886 -80.06173 25160 ft 392 kts 219°
2026-05-04 20:04 36.24619 -80.08043 24399 ft 393 kts 218°
2026-05-04 20:04 36.22333 -80.09928 23756 ft 390 kts 218°
2026-05-04 20:05 36.20107 -80.11758 23423 ft 380 kts 218°
2026-05-04 20:05 36.17921 -80.13548 23205 ft 368 kts 218°
2026-05-04 20:05 36.15834 -80.15256 23088 ft 355 kts 218°
2026-05-04 20:05 36.13815 -80.16911 23008 ft 344 kts 218°
2026-05-04 20:06 36.11784 -80.18583 22943 ft 356 kts 218°
2026-05-04 20:06 36.09721 -80.20282 22871 ft 358 kts 218°
2026-05-04 20:06 36.07636 -80.21993 22795 ft 358 kts 218°
2026-05-04 20:06 36.05554 -80.23699 22720 ft 358 kts 218°
2026-05-04 20:07 36.03482 -80.25395 22645 ft 358 kts 218°
2026-05-04 20:07 36.01434 -80.27071 22571 ft 356 kts 218°
2026-05-04 20:07 35.99371 -80.28759 22495 ft 356 kts 218°
2026-05-04 20:07 35.97315 -80.30438 22421 ft 355 kts 218°
2026-05-04 20:08 35.95254 -80.32122 22345 ft 355 kts 218°
2026-05-04 20:08 35.93216 -80.33783 22266 ft 345 kts 218°
2026-05-04 20:08 35.91234 -80.35396 22184 ft 334 kts 218°
2026-05-04 20:08 35.89344 -80.36935 22105 ft 324 kts 218°
2026-05-04 20:09 35.87465 -80.38465 22026 ft 318 kts 218°
2026-05-04 20:09 35.85618 -80.39972 21962 ft 325 kts 218°
2026-05-04 20:09 35.83748 -80.41498 21801 ft 329 kts 218°
2026-05-04 20:09 35.81869 -80.43165 21552 ft 329 kts 221°
2026-05-04 20:10 35.80059 -80.44911 20807 ft 339 kts 223°
2026-05-04 20:10 35.78173 -80.46757 20102 ft 346 kts 223°
2026-05-04 20:10 35.76238 -80.48547 19300 ft 355 kts 219°
2026-05-04 20:10 35.73966 -80.49918 18566 ft 364 kts 209°
2026-05-04 20:11 35.71614 -80.51065 17846 ft 367 kts 205°
2026-05-04 20:11 35.69175 -80.52130 17085 ft 371 kts 204°
2026-05-04 20:11 35.67557 -80.52797 16589 ft 372 kts 203°
2026-05-04 20:11 35.64275 -80.54102 15589 ft 374 kts 202°
2026-05-04 20:12 35.61787 -80.55072 14836 ft 374 kts 202°
2026-05-04 20:12 35.59415 -80.56275 14036 ft 367 kts 212°
2026-05-04 20:12 35.57508 -80.58237 13251 ft 355 kts 231°
2026-05-04 20:12 35.56294 -80.60833 12498 ft 343 kts 251°
2026-05-04 20:13 35.55927 -80.63667 11762 ft 336 kts 269°
2026-05-04 20:13 35.56048 -80.65548 11350 ft 331 kts 276°
2026-05-04 20:13 35.56301 -80.68389 10586 ft 330 kts 276°
2026-05-04 20:13 35.56488 -80.71159 9850 ft 328 kts 274°
2026-05-04 20:14 35.56598 -80.73936 9101 ft 326 kts 272°
2026-05-04 20:14 35.56646 -80.76711 8354 ft 325 kts 270°
2026-05-04 20:14 35.56348 -80.79400 7995 ft 311 kts 257°
2026-05-04 20:14 35.55482 -80.81753 7970 ft 290 kts 243°
2026-05-04 20:15 35.54534 -80.83845 7811 ft 277 kts 242°
2026-05-04 20:15 35.53615 -80.85928 7560 ft 270 kts 242°
2026-05-04 20:15 35.52736 -80.87938 7301 ft 264 kts 242°
2026-05-04 20:15 35.51880 -80.89908 7050 ft 259 kts 242°
2026-05-04 20:16 35.51039 -80.91854 6799 ft 255 kts 242°
2026-05-04 20:16 35.50112 -80.93697 6482 ft 254 kts 233°
2026-05-04 20:16 35.48738 -80.94934 6225 ft 244 kts 212°
2026-05-04 20:16 35.47175 -80.95676 5987 ft 236 kts 199°
2026-05-04 20:17 35.45568 -80.95942 5738 ft 232 kts 186°
2026-05-04 20:17 35.43975 -80.95841 5491 ft 228 kts 177°
2026-05-04 20:17 35.42389 -80.95577 5086 ft 232 kts 173°
2026-05-04 20:17 35.40780 -80.95289 4685 ft 234 kts 173°
2026-05-04 20:18 35.39155 -80.95042 4325 ft 234 kts 174°
2026-05-04 20:18 35.37542 -80.94856 3982 ft 233 kts 176°
2026-05-04 20:18 35.35940 -80.94735 3653 ft 228 kts 178°
2026-05-04 20:18 35.34463 -80.94645 3368 ft 199 kts 178°
2026-05-04 20:19 35.33147 -80.94555 3062 ft 181 kts 178°
2026-05-04 20:19 35.31936 -80.94453 2800 ft 167 kts 178°
2026-05-04 20:19 35.30799 -80.94334 2568 ft 162 kts 177°
2026-05-04 20:19 35.29684 -80.94219 2326 ft 159 kts 177°
2026-05-04 20:20 35.28589 -80.94126 2094 ft 157 kts 178°
2026-05-04 20:20 35.27511 -80.94051 1861 ft 152 kts 178°
2026-05-04 20:20 35.26463 -80.93970 1650 ft 149 kts 178°
2026-05-04 20:20 35.25435 -80.93879 1432 ft 148 kts 177°
2026-05-04 20:21 35.24415 -80.93782 1217 ft 149 kts 176°
2026-05-04 20:21 35.23371 -80.93689 996 ft 151 kts 176°
2026-05-04 20:21 35.21466 -80.93527 761 ft 103 kts 176°
2026-05-04 20:22 35.21026 -80.93489 761 ft 26 kts 176°
2026-05-04 20:22 35.20936 -80.93511 761 ft 10 kts 238°
2026-05-04 20:22 35.20944 -80.93601 761 ft 11 kts 321°
2026-05-04 20:22 35.21048 -80.93623 761 ft 19 kts 356°
2026-05-04 20:23 35.21206 -80.93634 761 ft 26 kts 357°
2026-05-04 20:23 35.21375 -80.93643 761 ft 17 kts 357°
2026-05-04 20:23 35.21470 -80.93716 761 ft 18 kts 309°
2026-05-04 20:23 35.21570 -80.93837 761 ft 20 kts 320°
2026-05-04 20:24 35.21696 -80.93965 761 ft 25 kts 321°
2026-05-04 20:24 35.21779 -80.94047 761 ft 13 kts 321°
2026-05-04 20:24 35.21817 -80.94119 761 ft 0 kts 289°